Date String (YYYY-MM-DD hh:mm:ss) UTC,Instrument flags,Ambient pressure (hPa),Sample flow (lpm),Bypass flow (lpm),Sample temperature (°C),Ambient temperature (°C),ASC tube jacket temperature (°C),LED temperature (°C),Box temperature (°C),Sample RH (%),Span deviation,Mass concentration (μg/m³),Mass concentration (μg/m³),Mass concentration (μg/m³)
DateTimeUTC,F1_M11,P_M11,Q1_M11,Q2_M11,T1_M11,T2_M11,T3_M11,T4_M11,T5_M11,U1_M11,ZSPAN_M11,X2_M11,X0_M11,X1_M11
2022-08-26 22:00:00,,0826.5,5.00,0.00,29.5,27.7,00.0,38.2,31.4,29.1,0000.0,0006.13,0015.34,0005.12
2022-08-26 22:01:00,,0826.5,4.99,0.00,29.6,27.9,00.0,38.2,31.4,30.3,0000.0,0006.04,0014.49,0005.10
2022-08-26 22:02:00,,0826.5,5.02,0.00,29.6,28.2,00.0,38.2,31.5,29.7,0000.0,0005.98,0015.31,0005.07
2022-08-26 22:03:00,,0826.5,5.00,0.00,29.6,28.4,00.0,38.3,31.5,29.4,0000.0,0005.98,0016.48,0005.04
2022-08-26 22:04:00,,0826.5,5.00,0.00,29.6,28.5,00.0,38.3,31.6,29.5,0000.0,0005.95,0016.81,0005.01
2022-08-26 22:05:00,,0826.5,5.00,0.00,29.7,28.6,00.0,38.3,31.6,30.6,0000.0,0005.93,0016.97,0005.00
2022-08-26 22:06:00,,0826.5,4.99,0.00,29.7,28.1,00.0,38.3,31.7,30.0,0000.0,0005.94,0017.48,0005.01
2022-08-26 22:07:00,,0826.5,5.00,0.00,29.7,26.9,00.0,38.3,31.5,29.5,0000.0,0005.96,0018.79,0005.01
2022-08-26 22:08:00,,0826.5,5.01,0.00,29.6,26.4,00.0,38.3,31.4,30.5,0000.0,0005.98,0018.62,0005.02
2022-08-26 22:09:00,,0826.5,4.99,0.00,29.6,26.5,00.0,38.2,31.3,31.0,0000.0,0006.02,0018.67,0005.04
2022-08-26 22:10:00,,0826.5,5.02,0.00,29.5,26.8,00.0,38.2,31.2,31.2,0000.0,0006.06,0018.80,0005.07
2022-08-26 22:11:00,,0826.5,5.00,0.00,29.5,27.2,00.0,38.2,31.3,30.9,0000.0,0006.03,0018.01,0005.10
2022-08-26 22:12:00,,0826.5,5.00,0.00,29.5,27.5,00.0,38.2,31.3,30.4,0000.0,0006.13,0018.15,0005.15
2022-08-26 22:13:00,,0826.5,5.01,0.00,29.5,27.8,00.0,38.2,31.4,30.9,0000.0,0006.19,0017.11,0005.19
2022-08-26 22:14:00,,0826.5,5.01,0.00,29.5,28.0,00.0,38.2,31.4,31.2,0000.0,0006.21,0015.96,0005.22
2022-08-26 22:15:00,,0826.5,4.99,0.00,29.5,28.2,00.0,38.2,31.5,30.2,0000.0,0006.27,0014.96,0005.26
2022-08-26 22:16:00,,0826.5,5.00,0.00,29.6,28.4,00.0,38.2,31.5,29.8,0000.0,0006.30,0015.11,0005.29
2022-08-26 22:17:00,,0826.5,4.99,0.00,29.6,28.5,00.0,38.3,31.6,30.1,0000.0,0006.29,0016.77,0005.30
2022-08-26 22:18:00,,0826.5,5.00,0.00,29.7,28.7,00.0,38.3,31.6,29.9,0000.0,0006.25,0015.17,0005.31
2022-08-26 22:19:00,,0826.6,5.00,0.00,29.7,28.5,00.0,38.3,31.7,28.4,0000.0,0006.28,0015.80,0005.31
2022-08-26 22:20:00,,0826.5,4.99,0.00,29.7,27.4,00.0,38.3,31.6,28.0,0000.0,0006.24,0016.16,0005.29
2022-08-26 22:21:00,,0826.5,5.00,0.00,29.7,26.5,00.0,38.3,31.5,29.1,0000.0,0006.26,0016.41,0005.27
2022-08-26 22:22:00,,0826.5,5.00,0.00,29.6,26.5,00.0,38.2,31.4,27.4,0000.0,0006.22,0016.02,0005.24
2022-08-26 22:23:00,,0826.5,4.99,0.00,29.6,26.8,00.0,38.2,31.3,26.8,0000.0,0006.16,0016.26,0005.18
2022-08-26 22:24:00,,0826.5,4.99,0.00,29.5,27.1,00.0,38.2,31.3,27.4,0000.0,0006.11,0015.76,0005.11
2022-08-26 22:25:00,,0826.5,5.00,0.00,29.5,27.5,00.0,38.2,31.3,26.2,0000.0,0005.99,0015.55,0005.01
2022-08-26 22:26:00,,0826.6,5.00,0.00,29.5,27.7,00.0,38.2,31.4,25.1,0000.0,0005.81,0015.41,0004.88
2022-08-26 22:27:00,,0826.6,4.99,0.00,29.5,28.0,00.0,38.2,31.4,25.2,0000.0,0005.61,0014.72,0004.72
2022-08-26 22:28:00,,0826.6,5.01,0.00,29.6,28.2,00.0,38.2,31.5,25.5,0000.0,0005.46,0012.73,0004.57
2022-08-26 22:29:00,,0826.6,5.00,0.00,29.6,28.4,00.0,38.2,31.5,25.6,0000.0,0005.32,0012.77,0004.42
2022-08-26 22:30:00,,0826.6,5.01,0.00,29.6,28.6,00.0,38.2,31.6,26.2,0000.0,0005.13,0012.77,0004.28
2022-08-26 22:31:00,,0826.6,5.00,0.00,29.7,28.7,00.0,38.3,31.7,25.7,0000.0,0004.97,0012.52,0004.15
2022-08-26 22:32:00,,0826.6,5.00,0.00,29.7,28.3,00.0,38.3,31.7,25.7,0000.0,0004.77,0012.78,0004.00
2022-08-26 22:33:00,,0826.6,4.99,0.00,29.7,27.1,00.0,38.3,31.6,25.2,0000.0,0004.65,0013.23,0003.86
2022-08-26 22:34:00,,0826.5,5.00,0.00,29.6,26.4,00.0,38.2,31.5,25.6,0000.0,0004.47,0012.17,0003.74
2022-08-26 22:35:00,,0826.5,5.01,0.00,29.6,26.6,00.0,38.2,31.4,25.4,0000.0,0004.32,0012.03,0003.62
2022-08-26 22:36:00,,0826.5,4.99,0.00,29.5,26.8,00.0,38.2,31.2,25.5,0000.0,0004.23,0012.42,0003.55
2022-08-26 22:37:00,,0826.5,4.99,0.00,29.5,27.2,00.0,38.2,31.3,25.5,0000.0,0004.24,0013.35,0003.51
2022-08-26 22:38:00,,0826.5,5.00,0.00,29.5,27.5,00.0,38.2,31.3,25.5,0000.0,0004.25,0014.00,0003.47
2022-08-26 22:39:00,,0826.5,4.99,0.00,29.5,27.8,00.0,38.2,31.4,25.5,0000.0,0004.26,0014.19,0003.45
2022-08-26 22:40:00,,0826.5,5.01,0.00,29.5,28.0,00.0,38.2,31.4,25.9,0000.0,0004.29,0014.18,0003.42
2022-08-26 22:41:00,,0826.5,4.99,0.00,29.6,28.2,00.0,38.2,31.5,26.0,0000.0,0004.29,0014.54,0003.39
2022-08-26 22:42:00,,0826.5,5.02,0.00,29.6,28.4,00.0,38.2,31.5,26.1,0000.0,0004.29,0015.19,0003.35
2022-08-26 22:43:00,,0826.5,5.00,0.00,29.6,28.5,00.0,38.2,31.6,25.9,0000.0,0004.23,0014.61,0003.33
2022-08-26 22:44:00,,0826.5,5.01,0.00,29.7,28.7,00.0,38.3,31.6,25.6,0000.0,0004.19,0014.85,0003.31
2022-08-26 22:45:00,,0826.5,4.99,0.00,29.7,28.8,00.0,38.3,31.7,24.8,0000.0,0004.15,0015.22,0003.30
2022-08-26 22:46:00,,0826.5,4.98,0.00,29.7,28.2,00.0,38.3,31.7,24.5,0000.0,0004.15,0015.81,0003.27
2022-08-26 22:47:00,,0826.5,5.01,0.00,29.7,26.9,00.0,38.3,31.6,24.6,0000.0,0004.15,0015.74,0003.24
2022-08-26 22:48:00,,0826.5,5.00,0.00,29.7,26.4,00.0,38.3,31.5,24.7,0000.0,0004.09,0014.58,0003.22
2022-08-26 22:49:00,,0826.5,5.00,0.00,29.6,26.6,00.0,38.2,31.4,24.5,0000.0,0004.02,0013.61,0003.19
2022-08-26 22:50:00,,0826.5,5.00,0.00,29.5,26.9,00.0,38.2,31.3,24.7,0000.0,0003.94,0012.98,0003.17
2022-08-26 22:51:00,,0826.5,5.00,0.00,29.5,27.2,00.0,38.2,31.3,24.9,0000.0,0003.86,0012.53,0003.15
2022-08-26 22:52:00,,0826.5,5.00,0.00,29.5,27.5,00.0,38.2,31.3,24.6,0000.0,0003.83,0011.35,0003.14
2022-08-26 22:53:00,,0826.5,5.00,0.00,29.5,27.8,00.0,38.2,31.4,24.5,0000.0,0003.78,0010.15,0003.14
2022-08-26 22:54:00,,0826.4,4.98,0.00,29.5,28.0,00.0,38.2,31.5,24.7,0000.0,0003.76,0009.67,0003.14
2022-08-26 22:55:00,,0826.4,5.02,0.00,29.6,28.2,00.0,38.2,31.5,23.6,0000.0,0003.76,0008.78,0003.14
2022-08-26 22:56:00,,0826.4,5.00,0.00,29.6,28.4,00.0,38.2,31.5,23.3,0000.0,0003.77,0008.35,0003.15
2022-08-26 22:57:00,,0826.4,4.99,0.00,29.6,28.5,00.0,38.3,31.6,23.4,0000.0,0003.75,0007.86,0003.16
2022-08-26 22:58:00,,0826.5,5.02,0.00,29.7,28.6,00.0,38.3,31.7,23.4,0000.0,0003.74,0007.54,0003.18
2022-08-26 22:59:00,,0826.5,4.99,0.00,29.7,28.4,00.0,38.3,31.7,23.2,0000.0,0003.72,0007.55,0003.20
